Location: Blue Sky Observatory
(43.1153°N, 70.9036°W)
Time: 08:52:06
(UTC-04:00)

Amateur Radio Satellites - All Passes

Search period start: 31 October 2014 08:22
Search period end: 01 November 2014 08:22
Location: Blue Sky Observatory, 43.1153°N, 70.9036°W

Satellite Date Start Highest point End Downlink Frequencies (MHz)
Time Altitude Azimuth
JAS-2 31 Oct 08:26:16 08:31:15 19° 306° (NW) 08:36:14 435.800 - 435.900 CW/SSB, 435.910 FM
SO-67 31 Oct 08:52:02 08:54:20 17° 292° (WNW) 08:56:38 435.3500 MHz FM
ISS 31 Oct 09:07:38 09:08:38 11° 130° (SE) 09:09:38 145.800 FM
Sapphire 31 Oct 09:29:25 09:31:56 13° 34° (NE) 09:34:26 437.095 MHz 1200 baud AX-25 AFSK
HO-68 31 Oct 09:34:18 09:41:24 58° 102° (ESE) 09:48:27 435.675 MHz FM
PCSat 31 Oct 09:50:25 09:54:09 18° 40° (NE) 09:57:51 145.825 MHz
UKube-1 31 Oct 09:52:19 09:56:08 29° 96° (E) 09:59:56 145.840 MHz, 145.915 MHz
ZACube-1 31 Oct 10:01:48 10:04:15 15° 91° (E) 10:06:40 437.345 MHz
Oscar 11 31 Oct 10:27:08 10:31:27 70° 102° (ESE) 10:35:45 145.825 FM, Beacon 2401.500 USB
SO-50 31 Oct 10:34:31 10:38:17 27° 113° (ESE) 10:42:09 436.795 FM
ISS 31 Oct 10:41:30 10:44:49 86° 144° (SE) 10:48:10 145.800 FM
FUNcube-1 31 Oct 10:43:31 10:47:32 43° 98° (E) 10:51:29 145.950 - 145.970 MHz USB
KITSAT 1 31 Oct 10:43:32 10:51:23 59° 115° (ESE) 10:59:16 435.175 FM
Sapphire 31 Oct 11:11:10 11:16:33 59° 56° (NE) 11:21:54 437.095 MHz 1200 baud AX-25 AFSK
HO-68 31 Oct 11:22:38 11:28:42 31° 301° (WNW) 11:34:44 435.675 MHz FM
UKube-1 31 Oct 11:28:33 11:32:14 27° 293° (WNW) 11:35:54 145.840 MHz, 145.915 MHz
PCSat 31 Oct 11:32:51 11:38:19 89° 240° (WSW) 11:43:44 145.825 MHz
ZACube-1 31 Oct 11:36:53 11:40:56 46° 288° (WNW) 11:44:54 437.345 MHz
Oscar 16 31 Oct 11:52:42 11:55:18 14° 59° (ENE) 11:57:53 437.025 USB, Beacon 2401.1428
Oscar 11 31 Oct 12:05:18 12:07:04 12° 299° (WNW) 12:08:50 145.825 FM, Beacon 2401.500 USB
SO-50 31 Oct 12:14:26 12:18:40 38° 312° (NW) 12:23:02 436.795 FM
ISS 31 Oct 12:19:03 12:21:50 24° 345° (NNW) 12:24:39 145.800 FM
FUNcube-1 31 Oct 12:20:49 12:23:35 17° 296° (WNW) 12:26:20 145.950 - 145.970 MHz USB
Uribyol 2 31 Oct 12:25:55 12:28:05 13° 57° (ENE) 12:30:15 436.500 FM
AO-Echo 31 Oct 12:28:24 12:31:14 15° 59° (ENE) 12:34:07 ?
ITAMSAT 1 31 Oct 12:33:21 12:35:57 14° 58° (ENE) 12:38:32 435.822 SSB
KITSAT 1 31 Oct 12:39:44 12:47:09 39° 316° (NW) 12:54:37 435.175 FM
Oscar 19 31 Oct 12:42:19 12:47:00 37° 68° (ENE) 12:51:40 437.125 CW, 437.150 USB
JAS-1B 31 Oct 12:43:14 12:48:24 37° 66° (ENE) 12:53:38 435.800 - 435.900 CW/SSB
Sapphire 31 Oct 12:55:32 12:59:31 21° 254° (WSW) 13:03:29 437.095 MHz 1200 baud AX-25 AFSK
UOSAT-12 31 Oct 12:58:13 13:02:49 68° 121° (ESE) 13:07:31 437.025 FM, 437.400 FM
AO-27 31 Oct 13:18:25 13:23:05 34° 67° (ENE) 13:27:46 436.795 MHz FM
PCSat 31 Oct 13:18:47 13:20:53 12° 258° (WSW) 13:22:59 145.825 MHz
Oscar 16 31 Oct 13:28:47 13:33:57 84° 256° (WSW) 13:39:07 437.025 USB, Beacon 2401.1428
Saudisat 1A 31 Oct 13:33:00 13:36:48 27° 45° (NE) 13:40:35 436.775 MHz
Gurwin Techsat 1B 31 Oct 13:33:54 13:38:12 26° 64° (ENE) 13:42:31 435.225 FM
TMSAT-1 31 Oct 13:40:40 13:44:41 22° 63° (ENE) 13:48:43 436.925 FM
ISS 31 Oct 13:56:51 13:59:20 19° 5° (N) 14:01:50 145.800 FM
Uribyol 2 31 Oct 14:01:31 14:06:45 85° 75° (ENE) 14:12:01 436.500 FM
AO-Echo 31 Oct 14:04:19 14:09:18 77° 257° (WSW) 14:14:30 ?
AO-7 31 Oct 14:07:03 14:12:54 22° 50° (NE) 14:18:45 29.400 - 29.500 MHz
ITAMSAT 1 31 Oct 14:09:28 14:14:42 87° 256° (WSW) 14:19:58 435.822 SSB
Oscar 19 31 Oct 14:21:59 14:26:23 28° 265° (W) 14:30:48 437.125 CW, 437.150 USB
JAS-1B 31 Oct 14:34:17 14:39:14 29° 265° (W) 14:44:11 435.800 - 435.900 CW/SSB
UOSAT-12 31 Oct 14:39:56 14:43:26 20° 321° (NW) 14:46:59 437.025 FM, 437.400 FM
KITSAT 1 31 Oct 14:40:45 14:45:16 16° 344° (NNW) 14:49:48 435.175 FM
AO-27 31 Oct 14:57:56 15:02:34 32° 264° (W) 15:07:14 436.795 MHz FM
Saudisat 1A 31 Oct 15:12:20 15:16:28 39° 243° (WSW) 15:20:35 436.775 MHz
Gurwin Techsat 1B 31 Oct 15:12:52 15:17:55 44° 261° (W) 15:23:00 435.225 FM
JAS-2 31 Oct 15:13:00 15:15:00 11° 47° (NE) 15:17:03 435.800 - 435.900 CW/SSB, 435.910 FM
TMSAT-1 31 Oct 15:19:05 15:24:14 52° 260° (W) 15:29:26 436.925 FM
ISS 31 Oct 15:33:28 15:36:40 41° 25° (NNE) 15:39:51 145.800 FM
Uribyol 2 31 Oct 15:44:55 15:46:52 12° 272° (W) 15:48:50 436.500 FM
ITAMSAT 1 31 Oct 15:53:53 15:54:56 11° 273° (W) 15:55:58 435.822 SSB
Uosat F 31 Oct 15:55:51 16:00:45 55° 71° (ENE) 16:05:41 435.120 FM
AO-7 31 Oct 15:56:17 16:04:34 86° 70° (ENE) 16:12:54 29.400 - 29.500 MHz
KITSAT 1 31 Oct 16:40:22 16:44:46 15° 15° (NNE) 16:49:09 435.175 FM
JAS-2 31 Oct 16:52:07 16:58:17 55° 69° (ENE) 17:05:16 435.800 - 435.900 CW/SSB, 435.910 FM
Hamsat 31 Oct 17:05:29 17:09:15 34° 70° (ENE) 17:13:02 145.90 MHz
ISS 31 Oct 17:10:19 17:13:17 30° 222° (SW) 17:16:15 145.800 FM
Uosat F 31 Oct 17:36:27 17:39:53 18° 268° (W) 17:43:20 435.120 FM
AO-7 31 Oct 17:52:35 17:58:18 20° 269° (W) 18:04:05 29.400 - 29.500 MHz
SO-67 31 Oct 17:53:35 17:55:00 12° 65° (ENE) 17:56:26 435.3500 MHz FM
OPAL 31 Oct 18:02:45 18:07:40 60° 104° (ESE) 18:12:32 ?
STRAND 1 31 Oct 18:22:06 18:24:48 14° 90° (E) 18:27:29 ?
HO-68 31 Oct 18:23:48 18:24:29 10° 44° (NE) 18:25:09 435.675 MHz FM
KITSAT 1 31 Oct 18:35:37 18:42:59 37° 43° (NE) 18:50:18 435.175 FM
JAS-2 31 Oct 18:38:28 18:43:46 28° 270° (W) 18:49:39 435.800 - 435.900 CW/SSB, 435.910 FM
Hamsat 31 Oct 18:42:08 18:45:17 21° 267° (W) 18:48:27 145.90 MHz
SO-50 31 Oct 19:04:22 19:08:51 37° 47° (NE) 19:13:22 436.795 FM
SO-67 31 Oct 19:24:19 19:27:35 41° 262° (W) 19:30:53 435.3500 MHz FM
AO-40 31 Oct 19:27:37 22:21:09 24° 121° (ESE) 23:39:26 Beacon 2401.320
RS-15 31 Oct 19:42:32 19:51:10 28° 103° (ESE) 19:59:42 29.354 - 29.394 USB, Beacon 29.352 USB
OPAL 31 Oct 19:42:45 19:46:05 18° 301° (WNW) 19:49:24 ?
UOSAT-12 31 Oct 19:48:03 19:50:47 15° 34° (NE) 19:53:29 437.025 FM, 437.400 FM
STRAND 1 31 Oct 19:59:22 20:04:31 72° 287° (WNW) 20:09:37 ?
HO-68 31 Oct 20:03:41 20:10:29 48° 65° (ENE) 20:17:19 435.675 MHz FM
KITSAT 1 31 Oct 20:30:55 20:38:51 63° 245° (WSW) 20:46:45 435.175 FM
SO-50 31 Oct 20:45:03 20:49:22 32° 245° (WSW) 20:53:41 436.795 FM
UKube-1 31 Oct 20:48:42 20:52:28 29° 68° (ENE) 20:56:16 145.840 MHz, 145.915 MHz
Oscar 10/S400 31 Oct 20:59:06 21:41:30 46° 205° (SSW) 04:42:07 145.825 - 145.975 CW/USB, Beacon 145.810 USB
ZACube-1 31 Oct 20:59:20 21:02:09 17° 64° (ENE) 21:04:56 437.345 MHz
Oscar 11 31 Oct 21:22:53 21:27:08 61° 74° (ENE) 21:31:24 145.825 FM, Beacon 2401.500 USB
UOSAT-12 31 Oct 21:27:00 21:31:45 76° 55° (NE) 21:36:23 437.025 FM, 437.400 FM
FUNcube-1 31 Oct 21:40:26 21:44:40 41° 71° (ENE) 21:48:50 145.950 - 145.970 MHz USB
STRAND 1 31 Oct 21:41:58 21:42:46 10° 305° (NW) 21:43:35 ?
MaSat-1 31 Oct 21:49:37 21:53:21 46° 113° (ESE) 21:56:44 437.345 MHz
RS-15 31 Oct 21:51:15 22:02:16 81° 305° (NW) 22:13:17 29.354 - 29.394 USB, Beacon 29.352 USB
HO-68 31 Oct 21:51:55 21:58:20 35° 264° (W) 22:04:48 435.675 MHz FM
UKube-1 31 Oct 22:24:56 22:28:37 27° 264° (W) 22:32:20 145.840 MHz, 145.915 MHz
KITSAT 1 31 Oct 22:30:47 22:32:37 11° 263° (W) 22:34:27 435.175 FM
ZACube-1 31 Oct 22:33:42 22:38:08 54° 260° (W) 22:42:30 437.345 MHz
Oscar 11 31 Oct 23:01:52 23:03:42 12° 270° (W) 23:05:33 145.825 FM, Beacon 2401.500 USB
UOSAT-12 31 Oct 23:09:00 23:11:14 13° 252° (WSW) 23:13:28 437.025 FM, 437.400 FM
FUNcube-1 31 Oct 23:17:53 23:21:11 20° 267° (W) 23:24:28 145.950 - 145.970 MHz USB
MaSat-1 31 Oct 23:26:44 23:28:52 15° 307° (NW) 23:30:54 437.345 MHz
RS-15 01 Nov 00:07:11 00:16:33 31° 333° (NNW) 00:26:04 29.354 - 29.394 USB, Beacon 29.352 USB
JAS-1B 01 Nov 00:27:34 00:29:09 11° 87° (E) 00:30:46 435.800 - 435.900 CW/SSB
Oscar 19 01 Nov 00:55:12 00:56:42 11° 88° (E) 00:58:11 437.125 CW, 437.150 USB
AO-27 01 Nov 01:33:28 01:34:12 10° 87° (E) 01:34:56 436.795 MHz FM
Oscar 16 01 Nov 01:39:52 01:44:26 32° 96° (E) 01:48:58 437.025 USB, Beacon 2401.1428
Sapphire 01 Nov 01:54:01 01:59:06 43° 113° (ESE) 02:04:13 437.095 MHz 1200 baud AX-25 AFSK
AO-Echo 01 Nov 02:10:47 02:15:37 34° 96° (E) 02:20:22 ?
JAS-1B 01 Nov 02:13:30 02:20:37 64° 102° (ESE) 02:29:07 435.800 - 435.900 CW/SSB
Uribyol 2 01 Nov 02:13:50 02:18:17 28° 95° (E) 02:22:41 436.500 FM
PCSat 01 Nov 02:15:16 02:20:38 71° 117° (ESE) 02:26:03 145.825 MHz
ITAMSAT 1 01 Nov 02:21:49 02:26:26 31° 96° (E) 02:31:01 435.822 SSB
RS-15 01 Nov 02:25:11 02:33:39 24° 9° (N) 02:42:17 29.354 - 29.394 USB, Beacon 29.352 USB
Oscar 19 01 Nov 02:31:34 02:36:43 87° 285° (WNW) 02:41:50 437.125 CW, 437.150 USB
AO-27 01 Nov 03:09:12 03:14:28 85° 104° (ESE) 03:19:41 436.795 MHz FM
Oscar 16 01 Nov 03:19:12 03:23:45 33° 293° (WNW) 03:28:16 437.025 USB, Beacon 2401.1428
Gurwin Techsat 1B 01 Nov 03:27:43 03:33:03 69° 102° (ESE) 03:38:20 435.225 FM
TMSAT-1 01 Nov 03:33:45 03:39:00 59° 101° (E) 03:44:13 436.925 FM
Sapphire 01 Nov 03:37:51 03:42:39 31° 312° (NW) 03:47:29 437.095 MHz 1200 baud AX-25 AFSK
OPAL 01 Nov 03:42:10 03:45:24 17° 58° (ENE) 03:48:38 ?
AO-Echo 01 Nov 03:49:35 03:54:18 33° 293° (WNW) 03:58:58 ?
Uribyol 2 01 Nov 03:53:02 03:57:49 38° 292° (WNW) 04:02:34 436.500 FM
AO-7 01 Nov 03:57:32 04:04:19 27° 94° (E) 04:11:03 29.400 - 29.500 MHz
PCSat 01 Nov 04:00:27 04:04:36 22° 317° (NW) 04:08:46 145.825 MHz
ITAMSAT 1 01 Nov 04:01:13 04:05:55 35° 293° (WNW) 04:10:34 435.822 SSB
Uosat F 01 Nov 04:03:57 04:06:56 16° 91° (E) 04:09:54 435.120 FM
JAS-1B 01 Nov 04:05:04 04:10:53 29° 297° (WNW) 04:17:34 435.800 - 435.900 CW/SSB
Oscar 19 01 Nov 04:13:12 04:15:16 12° 303° (WNW) 04:17:20 437.125 CW, 437.150 USB
RS-15 01 Nov 04:39:07 04:49:44 47° 41° (NE) 05:00:43 29.354 - 29.394 USB, Beacon 29.352 USB
AO-27 01 Nov 04:50:36 04:53:15 14° 302° (WNW) 04:55:53 436.795 MHz FM
Gurwin Techsat 1B 01 Nov 05:09:01 05:12:26 18° 300° (WNW) 05:15:51 435.225 FM
TMSAT-1 01 Nov 05:14:41 05:18:28 20° 298° (WNW) 05:22:15 436.925 FM
OPAL 01 Nov 05:18:41 05:23:46 68° 255° (WSW) 05:28:49 ?
Saudisat 1A 01 Nov 05:19:16 05:23:22 40° 117° (ESE) 05:27:30 436.775 MHz
STRAND 1 01 Nov 05:38:28 05:42:32 24° 64° (ENE) 05:46:38 ?
Uosat F 01 Nov 05:41:09 05:46:10 65° 288° (WNW) 05:51:08 435.120 FM
JAS-2 01 Nov 05:44:51 05:52:29 51° 97° (E) 05:59:49 435.800 - 435.900 CW/SSB, 435.910 FM
AO-7 01 Nov 05:49:27 05:57:43 70° 293° (WNW) 06:05:59 29.400 - 29.500 MHz
Hamsat 01 Nov 06:25:19 06:29:30 62° 101° (E) 06:33:43 145.90 MHz
SO-67 01 Nov 06:48:05 06:49:20 12° 91° (E) 06:50:35 435.3500 MHz FM
RS-15 01 Nov 06:51:38 07:02:33 61° 245° (WSW) 07:13:56 29.354 - 29.394 USB, Beacon 29.352 USB
Saudisat 1A 01 Nov 06:59:20 07:03:03 26° 316° (NW) 07:06:48 436.775 MHz
STRAND 1 01 Nov 07:16:32 07:21:27 45° 261° (W) 07:26:24 ?
JAS-2 01 Nov 07:30:08 07:37:14 39° 296° (WNW) 07:44:10 435.800 - 435.900 CW/SSB, 435.910 FM
MaSat-1 01 Nov 07:33:03 07:35:30 61° 246° (WSW) 07:37:50 437.345 MHz
AO-7 01 Nov 07:44:02 07:49:04 18° 314° (NW) 07:54:07 29.400 - 29.500 MHz
Hamsat 01 Nov 08:02:58 08:04:57 13° 297° (WNW) 08:06:57 145.90 MHz
